[[{"header":{"parameterUnit":"m.s-1","parameterCategory":1,"la1":30.2991,"la2":30.254,"lo1":-89.0895,"lo2":-89.0444,"dy":0.0017,"dx":0.0017,"nx":28,"ny":28,"refTime":"2023-09-09T03:00:00:Z","depth":0,"parameterNumber":2,"parameterNumberName":"U-component_of_WINDS"},"data":[0,0,0,0,0,0,0,0,0,0,0,0,0,0,0,0,0,0,0,0,0,0,0,0,0,0,0,0,0,0,0,0,0,0,0,0,0,0,0,0,0,0,0,0,0,0,0,0,0,0,0,0,0,0,0,0,0,0,-1.2571,-1.2572,0,-1.2578,-1.2578,-1.2578,-1.2546,-1.2545,-1.2544,-1.2543,-1.2551,-1.2552,-1.2553,0,0,0,0,0,0,0,0,0,0,0,0,0,-1.2531,-1.2532,-1.2571,-1.2572,-1.2572,-1.2578,-1.2578,-1.2578,-1.2546,-1.2545,-1.2544,-1.2543,-1.255,-1.2552,-1.2553,0,0,0,0,0,0,0,0,0,0,0,0,0,-1.2544,-1.2532,-1.2571,-1.2556,-1.2555,-1.2578,-1.2578,-1.2578,-1.2547,-1.2545,-1.2544,-1.2542,-1.255,-1.2551,-1.2553,-1.2591,0,0,-1.2558,-1.2559,0,0,0,0,0,0,0,0,-1.2544,-1.2546,-1.2559,-1.2558,-1.2556,-1.256,-1.2567,-1.2583,-1.2547,-1.255,-1.2543,-1.2542,-1.2555,-1.2556,-1.256,-1.2591,-1.2591,-1.2558,-1.2559,-1.256,-1.256,0,0,0,0,0,0,0,-1.2543,-1.2545,-1.2574,-1.2559,-1.2557,-1.2549,-1.255,-1.2569,-1.256,-1.2549,-1.2547,-1.2548,-1.2554,-1.2559,-1.256,-1.2592,-1.2558,-1.2559,-1.256,-1.2561,-1.2654,-1.2655,0,0,0,0,0,0,-1.2544,-1.2545,-1.2574,-1.2574,-1.2546,-1.2551,-1.2552,-1.256,-1.256,-1.2558,-1.255,-1.2547,-1.2557,-1.2558,-1.256,-1.2605,-1.256,-1.2561,-1.2562,-1.2652,-1.2654,-1.2656,0,0,0,0,0,0,-1.2543,-1.2547,-1.2574,-1.2559,-1.2562,-1.2553,-1.2563,-1.2561,-1.2566,-1.256,-1.2558,-1.2556,-1.2556,-1.2558,-1.2583,-1.2605,-1.2562,-1.2563,-1.2651,-1.2653,-1.2655,-1.2695,0,0,0,0,0,0,-1.2542,-1.2547,-1.2561,-1.2559,-1.2563,-1.2597,-1.2564,-1.2562,-1.2569,-1.2565,-1.2566,-1.2564,-1.2555,-1.2581,-1.2585,-1.2606,-1.2565,-1.2649,-1.2652,-1.2654,-1.2692,-1.2698,-1.2704,0,0,0,0,0,-1.2541,-1.2572,-1.2562,-1.2566,-1.258,-1.2598,-1.26,-1.2588,-1.257,-1.2585,-1.2581,-1.2564,-1.2602,-1.2584,-1.2588,-1.261,-1.2647,-1.2651,-1.2654,-1.2689,-1.2697,-1.2704,0,0,0,0,0,0,-1.2577,-1.2572,-1.256,-1.2592,-1.2596,-1.2593,-1.2611,-1.2597,-1.2606,-1.2602,-1.2587,-1.2588,-1.2616,-1.2615,-1.2596,-1.2647,-1.2621,-1.2626,-1.2646,-1.2654,-1.266,-1.266,-1.2566,0,0,0,0,0,-1.2588,-1.2603,-1.2597,-1.2626,-1.2628,-1.2619,-1.2626,-1.2617,-1.262,-1.2622,-1.262,-1.2624,-1.2636,-1.2645,-1.2656,-1.2691,-1.2691,-1.2708,-1.2714,-1.2719,-1.2723,-1.2742,-1.275,-1.2667,-1.2667,-1.2667,0,0,-1.2612,-1.2611,-1.2622,-1.2633,-1.2635,-1.2651,-1.2621,-1.2639,-1.265,-1.2624,-1.2649,-1.2647,-1.265,-1.2681,-1.2694,-1.2681,-1.2746,-1.2723,-1.2727,-1.2729,-1.2747,-1.2754,-1.2761,-1.2669,-1.2669,-1.2668,0,0,-1.2665,-1.2665,-1.2689,-1.2691,-1.2694,-1.2688,-1.2693,-1.2692,-1.269,-1.2714,-1.2695,-1.2708,-1.273,-1.2734,-1.2738,-1.2791,-1.2776,-1.2795,-1.2827,-1.2846,-1.2852,-1.2858,-1.2878,-1.2885,-1.2799,-1.2799,-1.2799,0,-1.2695,-1.2718,-1.2703,-1.2723,-1.2728,-1.2705,-1.2729,-1.2732,-1.2739,-1.2743,-1.2728,-1.2755,-1.2756,-1.2787,-1.28,-1.2804,-1.281,-1.2795,-1.2853,-1.2858,-1.2863,-1.2882,-1.289,-1.2801,-1.2801,-1.2801,-1.28,0,-1.2754,-1.2771,-1.279,-1.2797,-1.2804,-1.2826,-1.2815,-1.2824,-1.2814,-1.2809,-1.2834,-1.2833,-1.2844,-1.285,-1.284,-1.288,-1.2872,-1.2855,-1.283,-1.2874,-1.2891,-1.2898,-1.2805,-1.2804,-1.2803,-1.2802,0,0,-1.2831,-1.2829,-1.2837,-1.284,-1.2841,-1.2853,-1.2873,-1.2884,-1.2893,-1.2897,-1.2915,-1.2933,-1.2917,-1.2922,-1.2912,-1.2928,-1.2971,-1.2909,-1.2909,-1.2922,-1.3016,-1.303,-1.3038,-1.2961,-1.2962,-1.2963,-1.3016,0,-1.2883,-1.2919,-1.2906,-1.2942,-1.2957,-1.2935,-1.2952,-1.2955,-1.2951,-1.2963,-1.2958,-1.2972,-1.2949,-1.2952,-1.2967,-1.2963,-1.299,-1.2959,-1.2978,-1.2978,-1.2979,-1.3047,-1.3062,-1.3112,-1.3023,-1.3024,-1.3025,0,-1.295,-1.2957,-1.2995,-1.2993,-1.2999,-1.3016,-1.3024,-1.3035,-1.3038,-1.3033,-1.3039,-1.3025,-1.3045,-1.3018,-1.3046,-1.3025,-1.3031,-1.303,-1.3032,-1.3035,-1.3005,-1.3053,-1.3128,-1.3136,-1.3035,-1.3034,-1.3033,0,-1.3003,-1.3023,-1.3048,-1.3051,-1.3049,-1.3061,-1.3061,-1.3062,-1.3069,-1.3076,-1.3081,-1.309,-1.3096,-1.3103,-1.3092,-1.3074,-1.3122,-1.3094,-1.312,-1.312,-1.3132,-1.3132,-1.3211,-1.3134,-1.3134,-1.3134,-1.3134,0,-1.3064,-1.3088,-1.3072,-1.3088,-1.3114,-1.3099,-1.3125,-1.3123,-1.3124,-1.3138,-1.3119,-1.3133,-1.3117,-1.313,-1.3121,-1.3146,-1.3148,-1.3146,-1.3143,-1.3148,-1.3149,-1.3154,-1.3151,-1.3136,-1.3135,-1.3135,-1.3135,0,-1.313,-1.3119,-1.3146,-1.3142,-1.3141,-1.3161,-1.3158,-1.3172,-1.3166,-1.3185,-1.3188,-1.3178,-1.3192,-1.3182,-1.3195,-1.319,-1.3223,-1.3215,-1.3222,-1.3221,-1.3247,-1.3245,-1.3333,-1.3344,-1.3259,-1.326,-1.3261,0,-1.317,-1.3188,-1.3186,-1.3194,-1.3195,-1.3209,-1.3216,-1.3201,-1.3209,-1.3213,-1.3227,-1.3239,-1.3249,-1.3272,-1.3266,-1.3277,-1.327,-1.3299,-1.3271,-1.3276,-1.3272,-1.3271,-1.3274,-1.3306,-1.3307,-1.3308,-1.3308,0,-1.3243,-1.3237,-1.3247,-1.3257,-1.3265,-1.3272,-1.3277,-1.3285,-1.3269,-1.328,-1.3294,-1.3301,-1.3314,-1.3327,-1.3335,-1.3335,-1.332,-1.3317,-1.3324,-1.333,-1.3334,-1.3333,-1.3239,-1.3316,-1.3315,-1.3314,-1.3314,-1.3314,-1.3298,-1.3313,-1.3314,-1.3327,-1.3328,-1.3333,-1.3347,-1.3342,-1.3353,-1.3363,-1.3354,-1.3371,-1.3372,-1.3381,-1.3383,-1.3396,-1.3384,-1.3393,-1.3396,-1.3399,-1.3404,-1.333,-1.3397,-1.3397,-1.3397,-1.3397,-1.3397,0,-1.3371,-1.337,-1.3382,-1.3389,-1.3399,-1.3382,-1.3387,-1.3396,-1.3412,-1.3414,-1.3423,-1.3439,-1.3451,-1.3446,-1.3457,-1.3468,-1.3461,-1.3472,-1.3472,-1.3472,-1.3413,-1.3407,-1.3477,-1.3477,-1.3477,-1.3477,-1.3477,-1.3477,-1.341,-1.3435,-1.3429,-1.3455,-1.3454,-1.347,-1.3474,-1.3479,-1.3481,-1.35,-1.3509,-1.3506,-1.3505,-1.3515,-1.3525,-1.3524,-1.3529,-1.3542,-1.3538,-1.3484,-1.3476,-1.3468,-1.3463,-1.3543,-1.3543,-1.3596,-1.3596,-1.3596]},{"header":{"parameterUnit":"m.s-1","parameterCategory":1,"la1":30.2991,"la2":30.254,"lo1":-89.0895,"lo2":-89.0444,"dy":0.0017,"dx":0.0017,"nx":28,"ny":28,"refTime":"2023-09-09T03:00:00:Z","depth":0,"parameterNumber":3,"parameterNumberName":"V-component_of_WINDS"},"data":[0,0,0,0,0,0,0,0,0,0,0,0,0,0,0,0,0,0,0,0,0,0,0,0,0,0,0,0,0,0,0,0,0,0,0,0,0,0,0,0,0,0,0,0,0,0,0,0,0,0,0,0,0,0,0,0,0,0,-3.2311,-3.2312,0,-3.233,-3.233,-3.2331,-3.2292,-3.2291,-3.229,-3.2288,-3.2305,-3.2306,-3.2308,0,0,0,0,0,0,0,0,0,0,0,0,0,-3.2241,-3.2242,-3.2311,-3.2312,-3.2312,-3.233,-3.233,-3.2331,-3.2292,-3.2291,-3.2289,-3.2288,-3.2304,-3.2306,-3.2308,0,0,0,0,0,0,0,0,0,0,0,0,0,-3.2266,-3.2243,-3.2311,-3.2295,-3.2294,-3.233,-3.233,-3.2331,-3.2293,-3.2291,-3.2289,-3.2287,-3.2304,-3.2306,-3.2308,-3.2361,0,0,-3.2316,-3.2317,0,0,0,0,0,0,0,0,-3.2265,-3.2269,-3.2297,-3.2296,-3.2295,-3.2307,-3.2311,-3.2341,-3.2293,-3.2293,-3.2288,-3.2286,-3.2307,-3.2309,-3.2316,-3.2361,-3.2362,-3.2316,-3.2317,-3.2318,-3.2319,0,0,0,0,0,0,0,-3.2263,-3.2268,-3.2319,-3.2298,-3.2296,-3.2286,-3.2288,-3.2317,-3.231,-3.2293,-3.229,-3.2293,-3.2306,-3.2314,-3.2317,-3.2362,-3.2316,-3.2318,-3.232,-3.232,-3.2452,-3.2454,0,0,0,0,0,0,-3.2264,-3.2267,-3.2318,-3.2319,-3.2275,-3.2289,-3.2291,-3.2305,-3.231,-3.2309,-3.2295,-3.2291,-3.2311,-3.2314,-3.2317,-3.238,-3.2318,-3.2321,-3.2322,-3.245,-3.2453,-3.2455,0,0,0,0,0,0,-3.2263,-3.2269,-3.2317,-3.2292,-3.2298,-3.2292,-3.2308,-3.2306,-3.2315,-3.2311,-3.2309,-3.2305,-3.231,-3.2314,-3.2351,-3.238,-3.2322,-3.2324,-3.2448,-3.2451,-3.2454,-3.2504,0,0,0,0,0,0,-3.2261,-3.2269,-3.2289,-3.2293,-3.2299,-3.2351,-3.231,-3.2308,-3.2319,-3.2315,-3.232,-3.2319,-3.2309,-3.2347,-3.2353,-3.2382,-3.2326,-3.2445,-3.2449,-3.2453,-3.25,-3.2509,-3.2516,0,0,0,0,0,-3.2258,-3.2301,-3.229,-3.2296,-3.2325,-3.2353,-3.2357,-3.2344,-3.2322,-3.2342,-3.234,-3.2319,-3.2375,-3.2351,-3.2357,-3.2387,-3.2443,-3.2448,-3.2453,-3.2497,-3.2507,-3.2516,0,0,0,0,0,0,-3.2299,-3.2302,-3.2289,-3.2335,-3.2344,-3.2347,-3.2371,-3.2356,-3.2371,-3.2366,-3.235,-3.2351,-3.2392,-3.2393,-3.2366,-3.2439,-3.2405,-3.2411,-3.2437,-3.2447,-3.2455,-3.2454,-3.2328,0,0,0,0,0,-3.2314,-3.2338,-3.2338,-3.2378,-3.2384,-3.2377,-3.2389,-3.2379,-3.2388,-3.2391,-3.2392,-3.24,-3.242,-3.2433,-3.2451,-3.25,-3.2501,-3.2524,-3.2532,-3.2538,-3.2544,-3.2571,-3.2582,-3.247,-3.247,-3.247,0,0,-3.2343,-3.2348,-3.2364,-3.2387,-3.2393,-3.2418,-3.2381,-3.2408,-3.2426,-3.2395,-3.2431,-3.2431,-3.244,-3.2483,-3.2502,-3.2486,-3.2575,-3.2544,-3.255,-3.2552,-3.2577,-3.2588,-3.2597,-3.2473,-3.2473,-3.2472,0,0,-3.2411,-3.2416,-3.2452,-3.2459,-3.2469,-3.2464,-3.2473,-3.2478,-3.2478,-3.2513,-3.2491,-3.2512,-3.2546,-3.2553,-3.2562,-3.2633,-3.2615,-3.2639,-3.2682,-3.2709,-3.2718,-3.2725,-3.2752,-3.2762,-3.2645,-3.2645,-3.2645,0,-3.2447,-3.2484,-3.2471,-3.2501,-3.2512,-3.2486,-3.2522,-3.2529,-3.2544,-3.2552,-3.2533,-3.2577,-3.258,-3.2626,-3.2644,-3.2651,-3.266,-3.2639,-3.2717,-3.2725,-3.2732,-3.2757,-3.2767,-3.2648,-3.2648,-3.2647,-3.2647,0,-3.2528,-3.2554,-3.2581,-3.2598,-3.2612,-3.2644,-3.2636,-3.2652,-3.2641,-3.2638,-3.2675,-3.2679,-3.2698,-3.2707,-3.2696,-3.2752,-3.2741,-3.272,-3.2686,-3.2746,-3.277,-3.2779,-3.2652,-3.2651,-3.265,-3.265,0,0,-3.2621,-3.2632,-3.2642,-3.2651,-3.266,-3.268,-3.2711,-3.2731,-3.2745,-3.2756,-3.2782,-3.2813,-3.2794,-3.2803,-3.2792,-3.2816,-3.2874,-3.2792,-3.2792,-3.2808,-3.2937,-3.2954,-3.2965,-3.2862,-3.2863,-3.2865,-3.2937,0,-3.2689,-3.2745,-3.2735,-3.2788,-3.2813,-3.2789,-3.2816,-3.2825,-3.2824,-3.2844,-3.2841,-3.2864,-3.2836,-3.2842,-3.2864,-3.2862,-3.29,-3.2857,-3.2886,-3.2887,-3.2886,-3.2977,-3.2995,-3.3062,-3.2946,-3.2947,-3.2948,0,-3.2776,-3.2793,-3.2849,-3.2857,-3.2867,-3.2892,-3.291,-3.2929,-3.2939,-3.2936,-3.2947,-3.2933,-3.2963,-3.2929,-3.2972,-3.2943,-3.2954,-3.2955,-3.2957,-3.296,-3.2922,-3.2984,-3.3083,-3.3094,-3.2962,-3.2961,-3.296,0,-3.284,-3.2877,-3.2916,-3.2923,-3.2932,-3.2951,-3.2955,-3.2963,-3.2976,-3.2991,-3.3,-3.3018,-3.3028,-3.3042,-3.3033,-3.3008,-3.3077,-3.3042,-3.3076,-3.3077,-3.3092,-3.3092,-3.3197,-3.3098,-3.3098,-3.3098,-3.3097,0,-3.2918,-3.2954,-3.2945,-3.2969,-3.3009,-3.2996,-3.3036,-3.3037,-3.3045,-3.3068,-3.3048,-3.307,-3.3056,-3.3078,-3.307,-3.3107,-3.3111,-3.311,-3.3108,-3.3113,-3.3113,-3.3121,-3.3116,-3.31,-3.31,-3.3099,-3.3099,0,-3.2997,-3.2992,-3.3033,-3.304,-3.3042,-3.3071,-3.3076,-3.3098,-3.3095,-3.3126,-3.3132,-3.3128,-3.3152,-3.3144,-3.3169,-3.3164,-3.3212,-3.3203,-3.3209,-3.3207,-3.3243,-3.324,-3.3357,-3.3372,-3.3263,-3.3264,-3.3265,0,-3.3047,-3.3075,-3.3084,-3.31,-3.3106,-3.313,-3.3144,-3.3133,-3.3148,-3.3162,-3.3183,-3.3205,-3.3223,-3.3263,-3.3261,-3.3281,-3.3273,-3.3312,-3.3276,-3.328,-3.3275,-3.3274,-3.3277,-3.332,-3.3321,-3.3322,-3.3323,0,-3.3138,-3.3135,-3.3156,-3.3177,-3.3194,-3.3209,-3.3223,-3.3236,-3.3226,-3.3244,-3.3269,-3.3283,-3.331,-3.3333,-3.3351,-3.3354,-3.3338,-3.3335,-3.3344,-3.335,-3.3353,-3.3353,-3.3231,-3.3332,-3.3331,-3.3331,-3.333,-3.333,-3.3205,-3.3229,-3.324,-3.3264,-3.3274,-3.3287,-3.3309,-3.331,-3.3331,-3.3353,-3.3345,-3.3374,-3.3384,-3.3406,-3.3413,-3.3435,-3.342,-3.3433,-3.3436,-3.344,-3.3445,-3.3349,-3.3438,-3.3438,-3.3438,-3.3437,-3.3437,0,-3.3295,-3.3302,-3.3325,-3.3345,-3.3365,-3.3348,-3.3362,-3.3379,-3.3406,-3.3417,-3.3435,-3.3465,-3.3487,-3.3488,-3.3509,-3.3527,-3.352,-3.3533,-3.3532,-3.3533,-3.3457,-3.3448,-3.3538,-3.3538,-3.3538,-3.3538,-3.3538,-3.3538,-3.3345,-3.3385,-3.3383,-3.3428,-3.3433,-3.3463,-3.3473,-3.3486,-3.3494,-3.3529,-3.3548,-3.3549,-3.3556,-3.3577,-3.3597,-3.3597,-3.3606,-3.3622,-3.3619,-3.3548,-3.3538,-3.3529,-3.352,-3.3624,-3.3624,-3.3693,-3.3694,-3.3694]}]]